Regional Weather Roundup
Issued by NWS

Home | Current Version | Previous Version | Text Only | Print | Product List | Glossary Off
Versions: 1 2 3 4 5 6 7 8 9 10 11 12 13 14 15 16 17 18 19 20 21 22 23 24 25 26 27 28 29 30 31 32 33 34 35 36 37 38 39 40 41 42 43 44 45 46 47 48 49 50

000
ASUS43 KMKX 160511
RWRWI

WISCONSIN REGIONAL WEATHER ROUNDUP
NATIONAL WEATHER SERVICE MILWAUKEE/SULLIVAN WI
1200 AM CDT TUE SEP 16 2014

NOTE: "FAIR" INDICATES FEW OR NO CLOUDS BELOW 12,000 FEET WITH NO
SIGNIFICANT WEATHER AND/OR OBSTRUCTIONS TO VISIBILITY.

WIZ001-002-006>008-014>016-023>028-160600-
NORTHWEST WISCONSIN

CITY           SKY/WX    TMP DP  RH WIND       PRES   REMARKS
SUPERIOR ARPT  CLEAR     42  38  86 SW9       30.16S
ASHLAND        CLEAR     43  37  79 SW8       30.16F
HAYWARD        CLEAR     36  35  96 CALM      30.18F
SIREN          CLEAR     38  36  94 CALM      30.20S
RICE LAKE      CLEAR     39  38  97 CALM      30.22S
LADYSMITH      CLEAR     39  38  95 CALM      30.21R
EAU CLAIRE     CLEAR     41  38  89 SW3       30.21S
MENOMONIE      CLEAR     44  41  91 CALM      30.22S
NEW RICHMOND   CLEAR     39  39 100 CALM      30.22S
OSCEOLA        CLEAR     39  39 100 CALM      30.24S
$$

WIZ003>005-009-010-017-018-160600-
NORTH CENTRAL WISCONSIN

CITY           SKY/WX    TMP DP  RH WIND       PRES   REMARKS
WOODRUFF       CLEAR     37  35  93 CALM      30.16S FOG
RHINELANDER    CLEAR     33  32  96 W6        30.17S WCI  28
EAGLE RIVER    PTCLDY    33  33 100 CALM      30.15S FOG
LAND O LAKES   CLEAR     32  32 100 CALM      30.15S
PHILLIPS       CLEAR     38  36  92 W3        30.17S
TOMAHAWK       CLEAR     32  31  96 CALM      30.17F
MEDFORD        CLEAR     37  36  97 CALM      30.18F
MERRILL        PTCLDY    37  36  97 CALM      30.18S
$$

WIZ029-030-035-036-043>047-160600-
CENTRAL WISCONSIN

CITY           SKY/WX    TMP DP  RH WIND       PRES   REMARKS
WAUSAU         CLEAR     43  39  86 NW5       30.17S
MOSINEE        CLEAR     43  39  87 CALM      30.19S
MARSHFIELD     CLEAR     42  38  85 W3        30.19S
STEVENS POINT  CLEAR     37  36  96 CALM      30.19S
WAUPACA        CLEAR     47  42  81 CALM      30.19R
WAUTOMA        CLEAR     43  40  89 CALM      30.20R
WISC RAPIDS    CLEAR     41  39  93 CALM      30.21S
CAMP DOUGLAS   CLEAR     38  38 100 W5        30.21R WCI  35
$$

WIZ011>013-019>022-031-037>040-048>050-160600-
NORTHEAST WISCONSIN

CITY           SKY/WX    TMP DP  RH WIND       PRES   REMARKS
ANTIGO         CLEAR     38  36  95 CALM      30.16F
STURGEON BAY   PTCLDY    52  43  71 N13       30.14S
GREEN BAY      CLEAR     45  43  93 NW7       30.16S
MANITOWOC      CLEAR     51  48  89 NW7       30.15S
APPLETON       CLEAR     46  39  76 NW8       30.18R
CLINTONVILLE   CLEAR     45  37  76 CALM      30.18R
OSHKOSH        PTCLDY    49  45  86 NW8       30.17R
$$

WIZ032>034-041-042-053>061-160600-
SOUTHWEST WISCONSIN

CITY           SKY/WX    TMP DP  RH WIND       PRES   REMARKS
LA CROSSE      CLEAR     48  44  86 CALM      30.22S
SPARTA         CLEAR     38  38 100 S3        30.22F
VIROQUA        FAIR      42  42 100 NW3       30.22R
BOSCOBEL       FOG       44  42  93 CALM      30.23S VSB 1/4
PRAIRIE DU CHI CLEAR     44  42  94 CALM      30.23S
PLATTEVILLE    FAIR      43  42  96 CALM      30.22S
$$

WIZ056-057-062-063-064-067-068-160600-
SOUTH CENTRAL WISCONSIN

CITY           SKY/WX    TMP DP  RH WIND       PRES   REMARKS
BARABOO/DELLS  CLEAR     43  41  93 CALM      30.20F
LONE ROCK      FOG       46  42  86 W3        30.22R VSB 1
WATERTOWN      CLEAR     42  42 100 CALM      30.19R
MADISON        CLEAR     46  43  89 CALM      30.20R
MIDDLETON      FAIR      45  45  98 CALM      30.20S
MONROE         CLEAR     48  45  87 NW8       30.20S
JANESVILLE     CLEAR     46  45  93 CALM      30.19S
$$

WIZ051-052-058>065-066-070>072-160600-
SOUTHEAST WISCONSIN

CITY           SKY/WX    TMP DP  RH WIND       PRES   REMARKS
MILWAUKEE      CLEAR     49  46  90 W5        30.17S
WAUKESHA       CLEAR     45  43  93 W7        30.19R
MILWAUKEE/TIMM CLEAR     45  43  93 CALM      30.18S
RACINE         CLEAR     48  46  93 W6        30.19R
BURLINGTON     FOG       39  39 100 CALM      30.18S VSB 3/4
KENOSHA        CLEAR     45  45 100 NW6       30.18S
FOND DU LAC    CLEAR     47  44  90 W6        30.17S
SHEBOYGAN      CLEAR     46  44  93 W6        30.15F
WEST BEND      CLEAR     45  43  93 CALM      30.16F
JUNEAU         CLEAR     44  43  97 W5        30.19S
$$

LSZ147-162-160600-
LAKE SUPERIOR

STATION/POSITION TIME  TEMP    WIND        PRES    WAVE
                       AIR SEA DIR/SP/G            HT/PER
                 (UTC) (F)     (DEG/KT/KT) (MB)    (FT/S)
W MID LAKE BUOY  0450   50 47  240/ 12/ 14 1019.1F   2/ 4
DEVILS ISLAND    0500   51     230/ 13/ 15 1020.3F
PORT WING        0400   47     190/  7/  9 1021.0S
SAXON HARBOR     0400   44     200/  7/  8 1021.3R
$$

LMZ867-665-643>646-160600-
LAKE MICHIGAN

STATION/POSITION TIME  TEMP    WIND        PRES    WAVE
                       AIR SEA DIR/SP/G            HT/PER
                 (UTC) (F)     (DEG/KT/KT) (MB)    (FT/S)
N MID LAKE BUOY  0450   56 58   10/ 12/ 12 1019.9F   1/ 3
NORTHPORT PIER   0400   55      10/  4/  5 1020.3R
KEWAUNEE LAKESHO 0400   50                   N/A
SHEBOYGAN LAKESH 0500   51 50  260/ 11/ 12 1021.2F
PORT WASHINGTON  0400   50     290/  7/ 10 1021.7
ATWATER BUOY     0500   53     260/ 12/ 14 1022.2F
MILWAUKEE LAKESH 0400   51     290/  7/  9   N/A
S MID LAKE BUOY  0450   58 65  340/ 10/ 12 1021.2R   2/ 3
KENOSHA   LAKESH 0500   50     290/  8/ 11 1021.3F
$$

TC  - TEMPERATURE IN CELSIUS
VSB - VISIBILITY IN STATUTE MILES
WCI - WIND CHILL INDEX
HX  - HEAT INDEX




USA.gov is the U.S. government's official web portal to all federal, state and local government web resources and services.